This demonstration page uses our WeatherBlox Daily Observations layout. Learn more.

Left ArrowRight Arrow

Hourly Observations for February 27, 2016

Temp ( °F °C ) Dew Point ( °F °C ) Humidity (%) Winds ( mph kmh ) Pressure ( in mb ) Visibility ( mi km ) Precip ( " mm )
12:14 am 00:14 Cloudy 32 undefined 23 -5 69 69 W 14 22 30.24 1024 10 16 N/A
12:35 am 00:35 Cloudy 32 undefined 23 -5 69 69 W 12 19 30.24 1024 10 16 N/A
12:54 am 00:54 Cloudy 30 -1 23 -5 75 75 W 10 17 30.24 1024 10 16 N/A
1:14 am 01:14 Cloudy 30 -1 23 -5 75 75 W 14 22 30.24 1024 10 16 N/A
1:35 am 01:35 Cloudy 30 -1 23 -5 75 75 W 10 17 30.24 1024 10 16 N/A
1:54 am 01:54 Cloudy 30 -1 23 -5 75 75 W 13 20 30.24 1024 10 16 N/A
2:14 am 02:14 Mostly Cloudy 28 -2 23 -5 80 80 W 10 17 30.24 1024 10 16 N/A
2:35 am 02:35 Partly Cloudy 28 -2 23 -5 80 80 W 8 13 30.24 1024 10 16 N/A
2:54 am 02:54 Mostly Cloudy 28 -2 23 -5 80 80 W 6 9 30.24 1024 10 16 N/A
3:14 am 03:14 Cloudy 28 -2 23 -5 80 80 WSW 6 9 30.24 1024 10 16 N/A
3:35 am 03:35 Cloudy 28 -2 23 -5 80 80 WSW 7 11 30.24 1024 10 16 N/A
3:54 am 03:54 Partly Cloudy 28 -2 23 -5 80 80 SW 6 9 30.21 1023 10 16 N/A
4:14 am 04:14 Clear 28 -2 23 -5 80 80 SW 6 9 30.21 1023 10 16 N/A
4:35 am 04:35 Clear 27 -3 23 -5 86 86 SSW 5 7 30.21 1023 10 16 N/A
4:54 am 04:54 Clear 27 -3 23 -5 86 86 S 5 7 30.21 1023 10 16 N/A
5:14 am 05:14 Clear 27 -3 23 -5 86 86 S 6 9 30.18 1022 10 16 N/A
5:35 am 05:35 Clear 27 -3 23 -5 86 86 SSW 6 9 30.21 1023 10 16 N/A
5:54 am 05:54 Clear 27 -3 23 -5 86 86 SW 7 11 30.21 1023 10 16 N/A
6:14 am 06:14 Clear 27 -3 23 -5 86 86 SSW 8 13 30.21 1023 10 16 N/A
6:35 am 06:35 Clear 27 -3 23 -5 86 86 SSW 6 9 30.21 1023 10 16 N/A
6:54 am 06:54 Clear 27 -3 23 -5 86 86 S 7 11 30.21 1023 10 16 N/A
7:14 am 07:14 Clear 27 -3 23 -5 86 86 S 6 9 30.21 1023 10 16 N/A
7:35 am 07:35 Sunny 27 -3 23 -5 86 86 S 6 9 30.21 1023 10 16 N/A
7:54 am 07:54 Sunny 28 -2 23 -5 80 80 SSW 8 13 30.21 1023 10 16 N/A
8:14 am 08:14 Sunny 28 -2 25 -4 86 86 SSW 10 17 30.21 1023 10 16 N/A
8:35 am 08:35 Sunny 30 -1 25 -4 80 80 S 12 19 30.21 1023 10 16 N/A
8:54 am 08:54 Sunny 30 -1 25 -4 80 80 SSW 9 15 30.21 1023 10 16 N/A
9:14 am 09:14 Sunny 32 undefined 25 -4 75 75 SSW 12 19 30.21 1023 10 16 N/A
9:35 am 09:35 Sunny 34 1 27 -3 75 75 SSW 12 19 30.18 1022 10 16 N/A
9:54 am 09:54 Sunny 34 1 27 -3 75 75 S 12 19 30.18 1022 10 16 N/A
10:14 am 10:14 Sunny 34 1 27 -3 75 75 SSW 13 20 30.18 1022 10 16 N/A
10:35 am 10:35 Sunny 36 2 27 -3 70 70 SSW 15 24 30.18 1022 10 16 N/A
10:54 am 10:54 Sunny 36 2 28 -2 75 75 SSW 14 22 30.18 1022 10 16 N/A
11:14 am 11:14 Sunny 39 4 28 -2 65 65 SSW 14 22 30.15 1021 10 16 N/A
11:35 am 11:35 Sunny 39 4 30 -1 70 70 SSW 14 22 30.12 1020 10 16 N/A
11:54 am 11:54 Sunny 41 5 30 -1 66 66 SSW 16 26 30.12 1020 10 16 N/A
12:14 pm 12:14 Sunny 43 6 30 -1 61 61 SSW 14 22 30.12 1020 10 16 N/A
12:54 pm 12:54 Sunny 46 8 32 undefined 57 57 SW 13 20 30.12 1020 10 16 N/A
1:14 pm 13:14 Sunny 46 8 32 undefined 57 57 SW 12 19 30.09 1019 10 16 N/A
1:35 pm 13:35 Sunny 48 9 32 undefined 54 54 SSW 16 26 30.09 1019 10 16 N/A
1:54 pm 13:54 Sunny 48 9 32 undefined 54 54 SW 14 22 30.06 1018 10 16 N/A
2:14 pm 14:14 Sunny 50 10 30 -1 47 47 WSW 20 31 30.06 1018 10 16 N/A
2:35 pm 14:35 Sunny 52 11 32 undefined 47 47 SW 14 22 30.06 1018 10 16 N/A
2:54 pm 14:54 Sunny 52 11 32 undefined 47 47 SSW 16 26 30.03 1017 10 16 N/A
3:14 pm 15:14 Sunny 52 11 32 undefined 47 47 SW 17 28 30.03 1017 10 16 N/A
3:34 pm 15:34 Sunny 54 12 32 undefined 44 44 SW 14 22 30.00 1016 10 16 N/A
3:54 pm 15:54 Sunny 54 12 30 -1 41 41 SW 15 24 30.00 1016 10 16 N/A
4:15 pm 16:15 Sunny 54 12 30 -1 41 41 SW 17 28 30.00 1016 10 16 N/A
4:34 pm 16:34 Sunny 54 12 30 -1 41 41 SW 16 26 30.00 1016 10 16 N/A
4:54 pm 16:54 Sunny 54 12 30 -1 41 41 SW 17 28 30.00 1016 10 16 N/A
5:15 pm 17:15 Sunny 52 11 32 undefined 47 47 SW 13 20 30.03 1017 10 16 N/A
5:34 pm 17:34 Sunny 52 11 32 undefined 47 47 SW 13 20 30.00 1016 10 16 N/A
5:54 pm 17:54 Sunny 52 11 32 undefined 47 47 SW 14 22 30.00 1016 10 16 N/A
6:14 pm 18:14 Sunny 50 10 32 undefined 50 50 SW 14 22 30.00 1016 10 16 N/A
6:34 pm 18:34 Clear 48 9 32 undefined 54 54 SW 12 19 30.00 1016 10 16 N/A
6:55 pm 18:55 Clear 48 9 32 undefined 54 54 SW 9 15 30.03 1017 10 16 N/A
7:14 pm 19:14 Clear 46 8 32 undefined 57 57 SW 7 11 30.03 1017 10 16 N/A
7:34 pm 19:34 Clear 45 7 32 undefined 61 61 SW 6 9 30.03 1017 10 16 N/A
7:55 pm 19:55 Clear 45 7 32 undefined 61 61 SW 7 11 30.03 1017 10 16 N/A
8:14 pm 20:14 Clear 43 6 32 undefined 66 66 SSW 7 11 30.03 1017 10 16 N/A
8:35 pm 20:35 Clear 45 7 32 undefined 61 61 SSW 8 13 30.00 1016 10 16 N/A
8:54 pm 20:54 Clear 43 6 32 undefined 66 66 SSW 9 15 30.00 1016 10 16 N/A
9:14 pm 21:14 Clear 43 6 32 undefined 66 66 SSW 8 13 30.00 1016 10 16 N/A
9:35 pm 21:35 Clear 43 6 32 undefined 66 66 SSW 8 13 30.00 1016 10 16 N/A
9:54 pm 21:54 Clear 43 6 32 undefined 66 66 SSW 8 13 30.00 1016 10 16 N/A
10:14 pm 22:14 Clear 41 5 32 undefined 70 70 SSW 8 13 30.00 1016 10 16 N/A
10:35 pm 22:35 Clear 43 6 32 undefined 66 66 SSW 8 13 30.00 1016 10 16 N/A
10:54 pm 22:54 Clear 41 5 32 undefined 70 70 SSW 7 11 30.00 1016 10 16 N/A
11:14 pm 23:14 Clear 41 5 32 undefined 70 70 SSW 7 11 30.00 1016 10 16 N/A
11:35 pm 23:35 Clear 41 5 32 undefined 70 70 SSW 8 13 30.00 1016 10 16 N/A
11:54 pm 23:54 Clear 41 5 32 undefined 70 70 SSW 9 15 30.00 1016 10 16 N/A

Powered by AerisWeather